DAL1783 TNCC-KATL

Flight info

Callsign DAL1783
Flight time N/A
Altitude 33000
Route SCAPA1K SCAPA DCT BQN/N0477F340 L452 HAGIT Y421 SUMAC/N0470F360 Y421 OCTAL Q77 MJAMS/N0471F350 Q77 SHRKS/N0469F360 DCT LAIRI DCT LARZZ JJEDI4
Aircraft B738/M-SDE2E3FGHIRWXY/LB1

Departure

Time 2026-04-30 19:22
Airport Hato International Airport (TNCC)

Arrival

Time N/A
Airport Hartsfield Jackson Atlanta International Airport (KATL)
Time Latitude Longitude Altitude Speed Heading
2026-04-30 18:54 12.18544 -68.95629 53 ft 0 kts 193°
2026-04-30 19:14 12.18551 -68.95628 52 ft 2 kts 193°
2026-04-30 19:15 12.18565 -68.95623 51 ft 2 kts 216°
2026-04-30 19:15 12.18582 -68.95597 50 ft 2 kts 263°
2026-04-30 19:15 12.18582 -68.95586 49 ft 0 kts 280°
2026-04-30 19:16 12.18580 -68.95579 49 ft 0 kts 283°
2026-04-30 19:17 12.18582 -68.95587 49 ft 6 kts 288°
2026-04-30 19:18 12.18635 -68.95705 49 ft 11 kts 296°
2026-04-30 19:18 12.18668 -68.95802 49 ft 10 kts 283°
2026-04-30 19:18 12.18684 -68.95870 49 ft 9 kts 285°
2026-04-30 19:19 12.18710 -68.95950 50 ft 16 kts 285°
2026-04-30 19:19 12.18733 -68.96056 50 ft 14 kts 280°
2026-04-30 19:19 12.18780 -68.96279 51 ft 19 kts 284°
2026-04-30 19:20 12.18809 -68.96413 51 ft 18 kts 281°
2026-04-30 19:20 12.18835 -68.96548 50 ft 21 kts 281°
2026-04-30 19:20 12.18911 -68.96804 48 ft 16 kts 333°
2026-04-30 19:21 12.18959 -68.96809 45 ft 1 kts
2026-04-30 19:21 12.19054 -68.96737 42 ft 15 kts 98°
2026-04-30 19:22 12.18850 -68.95753 43 ft 133 kts 102°
2026-04-30 19:22 12.17922 -68.92123 1201 ft 197 kts 101°
2026-04-30 19:23 12.17670 -68.87708 2581 ft 239 kts 72°
2026-04-30 19:24 12.20305 -68.85489 3794 ft 267 kts 21°
2026-04-30 19:24 12.22107 -68.84973 4446 ft 273 kts 19°
2026-04-30 19:24 12.25822 -68.83908 5829 ft 281 kts 19°
2026-04-30 19:25 12.31552 -68.82169 7897 ft 290 kts 19°
2026-04-30 19:26 12.35421 -68.80997 9195 ft 294 kts 19°
2026-04-30 19:26 12.39385 -68.79797 10265 ft 308 kts 19°
2026-04-30 19:26 12.41512 -68.79150 10554 ft 323 kts 19°
2026-04-30 19:27 12.46030 -68.77778 11030 ft 354 kts 19°
2026-04-30 19:27 12.50974 -68.76282 11427 ft 384 kts 18°
2026-04-30 19:28 12.53579 -68.75493 11609 ft 398 kts 18°
2026-04-30 19:28 12.58972 -68.73863 12618 ft 405 kts 18°
2026-04-30 19:29 12.64444 -68.72209 13642 ft 413 kts 18°
2026-04-30 19:29 12.67216 -68.71352 14163 ft 416 kts 19°
2026-04-30 19:30 12.75480 -68.68269 15681 ft 428 kts 21°
2026-04-30 19:30 12.81113 -68.66066 16679 ft 435 kts 21°
2026-04-30 19:31 12.86843 -68.63863 17623 ft 442 kts 20°
2026-04-30 19:31 12.89714 -68.62770 18102 ft 445 kts 20°
2026-04-30 19:31 12.95554 -68.60556 19034 ft 451 kts 20°
2026-04-30 19:32 12.98546 -68.59424 19491 ft 454 kts 20°
2026-04-30 19:32 13.01487 -68.58312 19968 ft 456 kts 19°
2026-04-30 19:32 13.04511 -68.57167 20340 ft 461 kts 19°
2026-04-30 19:32 13.07525 -68.56026 20774 ft 463 kts 19°
2026-04-30 19:33 13.10565 -68.54874 21244 ft 465 kts 19°
2026-04-30 19:33 13.13609 -68.53720 21608 ft 469 kts 19°
2026-04-30 19:33 13.16676 -68.52557 22065 ft 470 kts 19°
2026-04-30 19:33 13.19746 -68.51392 22417 ft 474 kts 19°
2026-04-30 19:34 13.22859 -68.50210 22770 ft 478 kts 19°
2026-04-30 19:34 13.25951 -68.49036 23204 ft 479 kts 19°
2026-04-30 19:34 13.32301 -68.46622 23910 ft 486 kts 19°
2026-04-30 19:35 13.35479 -68.45413 24239 ft 490 kts 19°
2026-04-30 19:35 13.38681 -68.44195 24603 ft 493 kts 19°
2026-04-30 19:35 13.41939 -68.42956 24960 ft 495 kts 19°
2026-04-30 19:35 13.45162 -68.41730 25228 ft 500 kts 19°
2026-04-30 19:36 13.48430 -68.40486 25636 ft 501 kts 19°
2026-04-30 19:36 13.51744 -68.39224 25914 ft 505 kts 19°
2026-04-30 19:36 13.58343 -68.36711 26823 ft 503 kts 19°
2026-04-30 19:37 13.61625 -68.35460 27304 ft 502 kts 19°
2026-04-30 19:37 13.64877 -68.34220 27751 ft 501 kts 19°
2026-04-30 19:37 13.68164 -68.32967 28158 ft 502 kts 19°
2026-04-30 19:37 13.71446 -68.31715 28554 ft 502 kts 19°
2026-04-30 19:38 13.74735 -68.30460 28958 ft 501 kts 19°
2026-04-30 19:38 13.78000 -68.29214 29407 ft 500 kts 19°
2026-04-30 19:38 13.81239 -68.27977 29853 ft 498 kts 19°
2026-04-30 19:38 13.84499 -68.26733 30320 ft 496 kts 18°
2026-04-30 19:39 13.87714 -68.25504 30699 ft 496 kts 18°
2026-04-30 19:39 13.90964 -68.24262 31068 ft 495 kts 18°
2026-04-30 19:39 13.94192 -68.23028 31414 ft 495 kts 18°
2026-04-30 19:39 13.97405 -68.21798 31870 ft 492 kts 18°
2026-04-30 19:40 14.00656 -68.20554 32272 ft 491 kts 17°
2026-04-30 19:40 14.03865 -68.19327 32511 ft 492 kts 17°
2026-04-30 19:40 14.07081 -68.18095 32860 ft 492 kts 17°
2026-04-30 19:40 14.10292 -68.16868 32873 ft 496 kts 17°
2026-04-30 19:41 14.16766 -68.14391 32872 ft 490 kts 17°
2026-04-30 19:41 14.23154 -68.11942 32867 ft 490 kts 17°
2026-04-30 19:42 14.29563 -68.09483 32869 ft 491 kts 17°
2026-04-30 19:42 14.35947 -68.07036 32868 ft 493 kts 17°
2026-04-30 19:43 14.42397 -68.04562 32875 ft 492 kts 17°
2026-04-30 19:44 14.52060 -68.00854 32877 ft 494 kts 17°
2026-04-30 19:44 14.58496 -67.98380 32878 ft 494 kts 17°
2026-04-30 19:45 14.64932 -67.95898 32878 ft 493 kts 17°
2026-04-30 19:45 14.71399 -67.93409 32879 ft 494 kts 17°
2026-04-30 19:46 14.77862 -67.90920 32876 ft 496 kts 17°
2026-04-30 19:46 14.84352 -67.88416 32886 ft 496 kts 17°
2026-04-30 19:47 14.90817 -67.85925 32882 ft 497 kts 17°
2026-04-30 19:47 14.97306 -67.83421 32882 ft 497 kts 17°
2026-04-30 19:48 15.03792 -67.80917 32870 ft 497 kts 17°
2026-04-30 19:48 15.10319 -67.78394 32858 ft 497 kts 17°
2026-04-30 19:49 15.16798 -67.75882 32865 ft 498 kts 17°
2026-04-30 19:49 15.26583 -67.72094 32863 ft 501 kts 17°
2026-04-30 19:50 15.33107 -67.69572 32871 ft 501 kts 17°
2026-04-30 19:50 15.39638 -67.67047 32872 ft 501 kts 17°
2026-04-30 19:51 15.46186 -67.64512 32873 ft 502 kts 16°
2026-04-30 19:51 15.52778 -67.61952 32876 ft 502 kts 17°
2026-04-30 19:52 15.59317 -67.59411 32881 ft 502 kts 16°
2026-04-30 19:52 15.65860 -67.56859 32891 ft 501 kts 16°
2026-04-30 19:53 15.72425 -67.54308 32892 ft 503 kts 16°
2026-04-30 19:53 15.78978 -67.51790 32894 ft 503 kts 15°
2026-04-30 19:54 15.85663 -67.49700 32898 ft 500 kts
2026-04-30 19:54 15.92504 -67.48474 32895 ft 496 kts
2026-04-30 19:55 15.99341 -67.47552 32891 ft 495 kts
2026-04-30 19:55 16.06186 -67.46641 32894 ft 493 kts
2026-04-30 19:56 16.12999 -67.45692 32894 ft 493 kts
2026-04-30 19:56 16.19797 -67.44717 32896 ft 491 kts
2026-04-30 19:57 16.26599 -67.43733 32897 ft 493 kts
2026-04-30 19:57 16.33400 -67.42745 32898 ft 490 kts
2026-04-30 19:58 16.40144 -67.41756 32894 ft 488 kts
2026-04-30 19:58 16.46852 -67.40778 32897 ft 488 kts
2026-04-30 19:59 16.53618 -67.39798 32900 ft 489 kts
2026-04-30 20:00 16.63678 -67.38326 32900 ft 484 kts
2026-04-30 20:00 16.70370 -67.37353 32902 ft 486 kts
2026-04-30 20:01 16.80392 -67.35884 32909 ft 482 kts
2026-04-30 20:01 16.87064 -67.34905 32906 ft 483 kts
2026-04-30 20:02 16.97011 -67.33445 32909 ft 479 kts
2026-04-30 20:03 17.06922 -67.31995 32905 ft 478 kts
2026-04-30 20:03 17.13527 -67.31029 32904 ft 479 kts
2026-04-30 20:04 17.20151 -67.30060 32906 ft 481 kts
2026-04-30 20:05 17.30079 -67.28593 32901 ft 480 kts
2026-04-30 20:05 17.40033 -67.27123 32892 ft 480 kts
2026-04-30 20:06 17.46685 -67.26144 32898 ft 482 kts
2026-04-30 20:06 17.53340 -67.25166 32900 ft 481 kts
2026-04-30 20:07 17.59968 -67.24187 32899 ft 481 kts
2026-04-30 20:08 17.69977 -67.22714 32910 ft 483 kts
2026-04-30 20:08 17.76657 -67.21722 32914 ft 480 kts
2026-04-30 20:09 17.83303 -67.20739 32915 ft 482 kts
2026-04-30 20:09 17.93269 -67.19262 32918 ft 485 kts
2026-04-30 20:10 18.03308 -67.17777 32920 ft 485 kts
2026-04-30 20:11 18.13341 -67.16281 32927 ft 483 kts
2026-04-30 20:11 18.20000 -67.15290 32934 ft 483 kts
2026-04-30 20:12 18.30051 -67.13798 32939 ft 481 kts
2026-04-30 20:13 18.36688 -67.12814 32940 ft 485 kts 360°
2026-04-30 20:13 18.43384 -67.12336 32934 ft 474 kts 350°
2026-04-30 20:14 18.49826 -67.13211 32933 ft 460 kts 338°
2026-04-30 20:14 18.55767 -67.15440 32928 ft 447 kts 326°
2026-04-30 20:15 18.60940 -67.18883 32927 ft 435 kts 314°
2026-04-30 20:15 18.65111 -67.23321 32923 ft 422 kts 302°
2026-04-30 20:16 18.68123 -67.28557 33119 ft 418 kts 289°
2026-04-30 20:16 18.69183 -67.31405 33574 ft 412 kts 286°
2026-04-30 20:16 18.70129 -67.34219 33909 ft 412 kts 286°
2026-04-30 20:17 18.72514 -67.39761 33913 ft 417 kts 295°
2026-04-30 20:17 18.75686 -67.44902 33912 ft 419 kts 300°
2026-04-30 20:18 18.79227 -67.49834 33909 ft 422 kts 302°
2026-04-30 20:18 18.82832 -67.54656 33907 ft 420 kts 302°
2026-04-30 20:19 18.86468 -67.59486 33906 ft 421 kts 302°
2026-04-30 20:19 18.90123 -67.64358 33905 ft 420 kts 302°
2026-04-30 20:20 18.93734 -67.69178 33906 ft 421 kts 301°
2026-04-30 20:20 18.97380 -67.74062 33905 ft 422 kts 302°
2026-04-30 20:21 19.00996 -67.78900 33909 ft 422 kts 302°
2026-04-30 20:21 19.04634 -67.83772 33905 ft 421 kts 302°
2026-04-30 20:22 19.08245 -67.88609 33911 ft 422 kts 302°
2026-04-30 20:22 19.11898 -67.93507 33912 ft 421 kts 302°
2026-04-30 20:23 19.15519 -67.98367 33920 ft 423 kts 302°
2026-04-30 20:23 19.19160 -68.03256 33927 ft 423 kts 302°
2026-04-30 20:24 19.22778 -68.08115 33930 ft 422 kts 302°
2026-04-30 20:24 19.26419 -68.13013 33930 ft 423 kts 302°
2026-04-30 20:25 19.31868 -68.20346 33923 ft 422 kts 302°
2026-04-30 20:26 19.37302 -68.27672 33923 ft 423 kts 302°
2026-04-30 20:26 19.42758 -68.35033 33925 ft 423 kts 302°
2026-04-30 20:27 19.50027 -68.44859 33924 ft 424 kts 302°
2026-04-30 20:28 19.57297 -68.54690 33925 ft 424 kts 302°
2026-04-30 20:30 19.66401 -68.67039 33926 ft 425 kts 302°
2026-04-30 20:31 19.77332 -68.81897 33928 ft 427 kts 302°
2026-04-30 20:32 19.86462 -68.94334 33926 ft 426 kts 302°
2026-04-30 20:33 19.91948 -69.01752 33928 ft 427 kts 302°
2026-04-30 20:34 19.97490 -69.09207 33924 ft 428 kts 302°
2026-04-30 20:35 20.02998 -69.16637 33925 ft 428 kts 302°
2026-04-30 20:35 20.08524 -69.24094 33926 ft 429 kts 303°
2026-04-30 20:36 20.12205 -69.29073 33927 ft 428 kts 302°
2026-04-30 20:37 20.17722 -69.36562 33929 ft 429 kts 302°
2026-04-30 20:37 20.21375 -69.41526 33927 ft 429 kts 303°
2026-04-30 20:38 20.25067 -69.46532 33930 ft 429 kts 302°
2026-04-30 20:38 20.28747 -69.51532 33929 ft 429 kts 302°
2026-04-30 20:39 20.34286 -69.59065 33933 ft 432 kts 303°
2026-04-30 20:40 20.39798 -69.66572 33929 ft 432 kts 302°
2026-04-30 20:40 20.43507 -69.71629 33925 ft 431 kts 302°
2026-04-30 20:41 20.49022 -69.79226 33923 ft 431 kts 302°
2026-04-30 20:41 20.52648 -69.84298 33927 ft 431 kts 302°
2026-04-30 20:42 20.56273 -69.89384 33924 ft 431 kts 302°
2026-04-30 20:43 20.61731 -69.97031 33924 ft 432 kts 303°
2026-04-30 20:43 20.65381 -70.02138 33915 ft 432 kts 302°
2026-04-30 20:44 20.70831 -70.09777 33920 ft 433 kts 303°
2026-04-30 20:45 20.78108 -70.19971 33922 ft 434 kts 303°
2026-04-30 20:45 20.81831 -70.25084 33924 ft 435 kts 306°
2026-04-30 20:46 20.90460 -70.34261 33940 ft 439 kts 312°
2026-04-30 20:47 20.97128 -70.40939 33941 ft 440 kts 312°
2026-04-30 20:48 21.03789 -70.47689 33947 ft 440 kts 312°
2026-04-30 20:48 21.08209 -70.52192 33948 ft 439 kts 312°
2026-04-30 20:49 21.12640 -70.56718 33952 ft 440 kts 312°
2026-04-30 20:50 21.19255 -70.63486 33943 ft 441 kts 312°
2026-04-30 20:50 21.23720 -70.68057 33958 ft 441 kts 312°
2026-04-30 20:51 21.28162 -70.72604 33957 ft 441 kts 312°
2026-04-30 20:51 21.34801 -70.79419 33957 ft 441 kts 312°
2026-04-30 20:52 21.39234 -70.83974 33957 ft 441 kts 312°
2026-04-30 20:53 21.45887 -70.90818 33946 ft 441 kts 312°
2026-04-30 20:53 21.50321 -70.95384 33947 ft 443 kts 312°
2026-04-30 20:54 21.56875 -71.02355 33955 ft 440 kts 308°
2026-04-30 20:55 21.62309 -71.10301 33939 ft 438 kts 301°
2026-04-30 20:55 21.65633 -71.15727 33944 ft 437 kts 300°
2026-04-30 20:56 21.70665 -71.23973 33940 ft 439 kts 301°
2026-04-30 20:57 21.75676 -71.32159 33939 ft 439 kts 301°
2026-04-30 20:57 21.79045 -71.37659 33946 ft 439 kts 301°
2026-04-30 20:58 21.84081 -71.45883 33937 ft 441 kts 301°
2026-04-30 20:58 21.87457 -71.51405 33941 ft 442 kts 301°
2026-04-30 20:59 21.92498 -71.59669 33958 ft 442 kts 301°
2026-04-30 21:00 21.99247 -71.70740 33949 ft 441 kts 301°
2026-04-30 21:01 22.04307 -71.79061 33948 ft 443 kts 301°
2026-04-30 21:02 22.09353 -71.87363 33947 ft 443 kts 301°
2026-04-30 21:02 22.12714 -71.92902 33949 ft 442 kts 302°
2026-04-30 21:03 22.16091 -71.98480 33948 ft 444 kts 302°
2026-04-30 21:03 22.19454 -72.04031 33953 ft 442 kts 302°
2026-04-30 21:04 22.22813 -72.09584 33951 ft 442 kts 302°
2026-04-30 21:04 22.27856 -72.17932 33952 ft 442 kts 302°
2026-04-30 21:05 22.31185 -72.23451 33952 ft 442 kts 302°
2026-04-30 21:05 22.34548 -72.29034 33952 ft 440 kts 303°
2026-04-30 21:06 22.37886 -72.34578 33954 ft 442 kts 303°
2026-04-30 21:06 22.41202 -72.40099 33954 ft 440 kts 303°
2026-04-30 21:07 22.44537 -72.45645 33953 ft 441 kts 303°
2026-04-30 21:07 22.47883 -72.51230 33952 ft 441 kts 303°
2026-04-30 21:08 22.51210 -72.56793 33949 ft 440 kts 303°
2026-04-30 21:08 22.54541 -72.62355 33949 ft 441 kts 304°
2026-04-30 21:09 22.57860 -72.67901 33949 ft 441 kts 303°
2026-04-30 21:09 22.61197 -72.73471 33949 ft 442 kts 303°
2026-04-30 21:10 22.64518 -72.79024 33948 ft 440 kts 303°
2026-04-30 21:10 22.67843 -72.84605 33950 ft 441 kts 303°
2026-04-30 21:11 22.71155 -72.90163 33955 ft 441 kts 304°
2026-04-30 21:11 22.74463 -72.95724 33959 ft 439 kts 304°
2026-04-30 21:12 22.77755 -73.01257 33963 ft 438 kts 304°
2026-04-30 21:12 22.81064 -73.06825 33960 ft 441 kts 304°
2026-04-30 21:13 22.84367 -73.12395 33965 ft 437 kts 304°
2026-04-30 21:13 22.87649 -73.17938 33958 ft 440 kts 304°
2026-04-30 21:14 22.90941 -73.23500 33957 ft 438 kts 304°
2026-04-30 21:14 22.94226 -73.29055 33960 ft 439 kts 304°
2026-04-30 21:15 22.97510 -73.34618 33957 ft 437 kts 304°
2026-04-30 21:15 23.00779 -73.40157 33959 ft 437 kts 304°
2026-04-30 21:16 23.04058 -73.45720 33949 ft 437 kts 304°
2026-04-30 21:16 23.07325 -73.51273 33948 ft 437 kts 304°
2026-04-30 21:17 23.10581 -73.56815 33943 ft 436 kts 304°
2026-04-30 21:17 23.13857 -73.62392 33941 ft 437 kts 304°
2026-04-30 21:18 23.17104 -73.67930 33934 ft 438 kts 304°
2026-04-30 21:18 23.20387 -73.73532 33934 ft 437 kts 304°
2026-04-30 21:19 23.23621 -73.79057 33934 ft 436 kts 304°
2026-04-30 21:19 23.26878 -73.84616 33929 ft 435 kts 304°
2026-04-30 21:20 23.30119 -73.90157 33934 ft 435 kts 304°
2026-04-30 21:20 23.33353 -73.95715 33937 ft 436 kts 304°
2026-04-30 21:21 23.36607 -74.01299 33933 ft 435 kts 304°
2026-04-30 21:22 23.41461 -74.09615 33942 ft 434 kts 304°
2026-04-30 21:23 23.47934 -74.20736 33947 ft 435 kts 304°
2026-04-30 21:23 23.52763 -74.29080 33946 ft 435 kts 304°
2026-04-30 21:24 23.55983 -74.34639 33946 ft 438 kts 305°
2026-04-30 21:24 23.59224 -74.40242 33945 ft 435 kts 304°
2026-04-30 21:25 23.64078 -74.48644 33946 ft 441 kts 305°
2026-04-30 21:26 23.68967 -74.57125 33948 ft 436 kts 305°
2026-04-30 21:27 23.73815 -74.65555 33944 ft 437 kts 304°
2026-04-30 21:27 23.77065 -74.71195 33948 ft 440 kts 304°
2026-04-30 21:28 23.81900 -74.79610 33949 ft 438 kts 304°
2026-04-30 21:29 23.86781 -74.88129 33944 ft 440 kts 304°
2026-04-30 21:30 23.94889 -75.02299 33947 ft 442 kts 304°
2026-04-30 21:31 24.03016 -75.16547 33950 ft 442 kts 304°
2026-04-30 21:32 24.07839 -75.25038 33952 ft 439 kts 304°
2026-04-30 21:32 24.11065 -75.30720 33950 ft 439 kts 304°
2026-04-30 21:33 24.15903 -75.39260 33946 ft 441 kts 304°
2026-04-30 21:34 24.19140 -75.44976 33948 ft 441 kts 305°
2026-04-30 21:34 24.23985 -75.53527 33948 ft 441 kts 305°
2026-04-30 21:35 24.27212 -75.59238 33945 ft 438 kts 305°
2026-04-30 21:35 24.30403 -75.64899 33945 ft 439 kts 304°
2026-04-30 21:36 24.33606 -75.70582 33949 ft 439 kts 304°
2026-04-30 21:37 24.40009 -75.81952 33950 ft 439 kts 304°
2026-04-30 21:37 24.43210 -75.87653 33947 ft 437 kts 304°
2026-04-30 21:38 24.46392 -75.93327 33947 ft 440 kts 304°
2026-04-30 21:38 24.49583 -75.99023 33946 ft 437 kts 304°
2026-04-30 21:39 24.52753 -76.04684 33949 ft 438 kts 304°
2026-04-30 21:39 24.55945 -76.10390 33945 ft 436 kts 304°
2026-04-30 21:40 24.59126 -76.16032 33950 ft 437 kts 305°
2026-04-30 21:40 24.62432 -76.21593 33949 ft 434 kts 306°
2026-04-30 21:41 24.65765 -76.27116 33945 ft 436 kts 306°
2026-04-30 21:41 24.69100 -76.32683 33946 ft 437 kts 306°
2026-04-30 21:42 24.72420 -76.38261 33941 ft 434 kts 306°
2026-04-30 21:42 24.75723 -76.43827 33944 ft 434 kts 306°
2026-04-30 21:43 24.79016 -76.49381 33940 ft 434 kts 305°
2026-04-30 21:43 24.82297 -76.54929 33937 ft 433 kts 305°
2026-04-30 21:44 24.85581 -76.60484 33932 ft 435 kts 305°
2026-04-30 21:44 24.88879 -76.66067 33938 ft 434 kts 305°
2026-04-30 21:45 24.92145 -76.71609 33935 ft 434 kts 305°
2026-04-30 21:45 24.95409 -76.77167 33932 ft 433 kts 304°
2026-04-30 21:46 24.98713 -76.82782 33935 ft 434 kts 304°
2026-04-30 21:46 25.01973 -76.88329 33928 ft 433 kts 304°
2026-04-30 21:47 25.05252 -76.93908 33931 ft 435 kts 304°
2026-04-30 21:47 25.08522 -76.99487 33927 ft 433 kts 304°
2026-04-30 21:48 25.11802 -77.05086 33925 ft 434 kts 304°
2026-04-30 21:48 25.15056 -77.10643 33924 ft 435 kts 304°
2026-04-30 21:49 25.18343 -77.16276 33926 ft 435 kts 304°
2026-04-30 21:49 25.21615 -77.21883 33928 ft 434 kts 304°
2026-04-30 21:50 25.24875 -77.27467 33929 ft 436 kts 304°
2026-04-30 21:50 25.28072 -77.33119 33928 ft 435 kts 301°
2026-04-30 21:51 25.30629 -77.39207 33930 ft 437 kts 294°
2026-04-30 21:51 25.32739 -77.45455 33929 ft 439 kts 292°
2026-04-30 21:52 25.34784 -77.51849 33928 ft 439 kts 292°
2026-04-30 21:52 25.36818 -77.58192 33950 ft 442 kts 292°
2026-04-30 21:53 25.37844 -77.61378 34345 ft 441 kts 292°
2026-04-30 21:53 25.38868 -77.64557 35002 ft 435 kts 292°
2026-04-30 21:53 25.39877 -77.67684 35570 ft 431 kts 292°
2026-04-30 21:53 25.40874 -77.70769 35904 ft 431 kts 292°
2026-04-30 21:54 25.43019 -77.76953 35929 ft 429 kts 297°
2026-04-30 21:54 25.45832 -77.82714 35938 ft 425 kts 303°
2026-04-30 21:55 25.48951 -77.88254 35942 ft 426 kts 304°
2026-04-30 21:55 25.52100 -77.93772 35944 ft 426 kts 304°
2026-04-30 21:56 25.55246 -77.99363 35943 ft 426 kts 303°
2026-04-30 21:56 25.58341 -78.04919 35945 ft 424 kts 303°
2026-04-30 21:57 25.61410 -78.10438 35944 ft 424 kts 303°
2026-04-30 21:57 25.64487 -78.15997 35943 ft 423 kts 303°
2026-04-30 21:58 25.67576 -78.21593 35943 ft 425 kts 303°
2026-04-30 21:58 25.70648 -78.27157 35942 ft 424 kts 303°
2026-04-30 21:59 25.73708 -78.32708 35933 ft 422 kts 303°
2026-04-30 22:00 25.78289 -78.41037 35935 ft 423 kts 303°
2026-04-30 22:00 25.82845 -78.49327 35936 ft 421 kts 303°
2026-04-30 22:01 25.85877 -78.54849 35935 ft 420 kts 303°
2026-04-30 22:01 25.88905 -78.60373 35932 ft 419 kts 303°
2026-04-30 22:02 25.91683 -78.66035 35928 ft 421 kts 294°
2026-04-30 22:02 25.92986 -78.72413 35928 ft 429 kts 278°
2026-04-30 22:03 25.93137 -78.79042 35926 ft 430 kts 274°
2026-04-30 22:03 25.93061 -78.85649 35925 ft 430 kts 274°
2026-04-30 22:04 25.92989 -78.92316 35925 ft 430 kts 274°
2026-04-30 22:05 25.92917 -79.02234 35925 ft 429 kts 274°
2026-04-30 22:05 25.92878 -79.08857 35923 ft 431 kts 274°
2026-04-30 22:06 25.92865 -79.15503 36068 ft 429 kts 275°
2026-04-30 22:06 25.93076 -79.22036 36451 ft 425 kts 278°
2026-04-30 22:06 25.93353 -79.25320 36634 ft 424 kts 281°
2026-04-30 22:07 25.94380 -79.31720 36663 ft 425 kts 287°
2026-04-30 22:07 25.95196 -79.34896 36382 ft 423 kts 291°
2026-04-30 22:07 25.95892 -79.38058 35976 ft 424 kts 278°
2026-04-30 22:08 25.95684 -79.41330 35945 ft 428 kts 264°
2026-04-30 22:08 25.94962 -79.44542 35922 ft 434 kts 260°
2026-04-30 22:08 25.93528 -79.51038 35914 ft 437 kts 264°
2026-04-30 22:09 25.92754 -79.57702 35913 ft 433 kts 271°
2026-04-30 22:09 25.92479 -79.64339 35911 ft 431 kts 273°
2026-04-30 22:10 25.92373 -79.70964 35910 ft 432 kts 274°
2026-04-30 22:10 25.92643 -79.77595 35909 ft 425 kts 283°
2026-04-30 22:11 25.94590 -79.83637 35915 ft 419 kts 300°
2026-04-30 22:11 25.96036 -79.86459 35913 ft 418 kts 303°
2026-04-30 22:12 25.99115 -79.91924 35908 ft 417 kts 304°
2026-04-30 22:12 26.02224 -79.97350 35911 ft 417 kts 304°
2026-04-30 22:13 26.05310 -80.02817 35900 ft 416 kts 303°
2026-04-30 22:13 26.08365 -80.08270 35897 ft 417 kts 303°
2026-04-30 22:14 26.11431 -80.13757 35900 ft 416 kts 304°
2026-04-30 22:14 26.14964 -80.18833 35904 ft 416 kts 317°
2026-04-30 22:15 26.19782 -80.22327 35907 ft 414 kts 333°
2026-04-30 22:15 26.25112 -80.24843 35904 ft 416 kts 337°
2026-04-30 22:16 26.30512 -80.27168 35902 ft 418 kts 337°
2026-04-30 22:17 26.41339 -80.31873 35902 ft 417 kts 336°
2026-04-30 22:17 26.49493 -80.35461 35897 ft 416 kts 336°
2026-04-30 22:18 26.57594 -80.39043 35892 ft 417 kts 336°
2026-04-30 22:19 26.65781 -80.42675 35888 ft 417 kts 336°
2026-04-30 22:20 26.73879 -80.46267 35885 ft 416 kts 336°
2026-04-30 22:20 26.81992 -80.49880 35878 ft 418 kts 336°
2026-04-30 22:21 26.87433 -80.52302 35877 ft 416 kts 336°
2026-04-30 22:21 26.92874 -80.54727 35883 ft 417 kts 336°
2026-04-30 22:22 26.98304 -80.57149 35890 ft 421 kts 335°
2026-04-30 22:22 27.03780 -80.59591 35889 ft 420 kts 336°
2026-04-30 22:23 27.09213 -80.62026 35878 ft 419 kts 335°
2026-04-30 22:23 27.14673 -80.64468 35878 ft 420 kts 335°
2026-04-30 22:24 27.20131 -80.66908 35876 ft 419 kts 335°
2026-04-30 22:24 27.25530 -80.69323 35877 ft 420 kts 335°
2026-04-30 22:25 27.30989 -80.71771 35877 ft 419 kts 335°
2026-04-30 22:25 27.36421 -80.74210 35875 ft 418 kts 335°
2026-04-30 22:26 27.44549 -80.77866 35870 ft 418 kts 335°
2026-04-30 22:27 27.49958 -80.80306 35870 ft 420 kts 335°
2026-04-30 22:27 27.58064 -80.83954 35871 ft 419 kts 335°
2026-04-30 22:28 27.66132 -80.87610 35869 ft 415 kts 335°
2026-04-30 22:29 27.76953 -80.92502 35870 ft 418 kts 334°
2026-04-30 22:30 27.86872 -80.99022 35871 ft 411 kts 320°
2026-04-30 22:31 27.93446 -81.05284 35873 ft 411 kts 319°
2026-04-30 22:32 28.04552 -81.15398 35868 ft 411 kts 326°
2026-04-30 22:33 28.17559 -81.22348 35877 ft 412 kts 332°
2026-04-30 22:35 28.30690 -81.29048 35882 ft 414 kts 331°
2026-04-30 22:36 28.43813 -81.35774 35880 ft 414 kts 332°
2026-04-30 22:37 28.54282 -81.41134 35881 ft 411 kts 332°
2026-04-30 22:38 28.64774 -81.46513 35877 ft 410 kts 331°
2026-04-30 22:39 28.72616 -81.50545 35873 ft 413 kts 331°
2026-04-30 22:40 28.88243 -81.58579 35875 ft 410 kts 331°
2026-04-30 22:41 28.96586 -81.61355 35878 ft 426 kts 346°
2026-04-30 22:41 29.02499 -81.61981 35877 ft 426 kts 349°
2026-04-30 22:43 29.20298 -81.63444 35865 ft 426 kts 348°
2026-04-30 22:44 29.32185 -81.64516 35865 ft 425 kts 348°
2026-04-30 22:45 29.49902 -81.66155 35853 ft 426 kts 347°
2026-04-30 22:47 29.67586 -81.67784 35851 ft 427 kts 347°
2026-04-30 22:48 29.79417 -81.68883 35846 ft 426 kts 346°
2026-04-30 22:49 29.97201 -81.70541 35849 ft 426 kts 346°
2026-04-30 22:51 30.14861 -81.72182 35849 ft 420 kts 346°
2026-04-30 22:52 30.23669 -81.73011 35848 ft 424 kts 346°
2026-04-30 22:53 30.35438 -81.74110 35847 ft 424 kts 346°
2026-04-30 22:53 30.44238 -81.74934 35844 ft 420 kts 346°
2026-04-30 22:55 30.58874 -81.76394 35837 ft 419 kts 342°
2026-04-30 22:55 30.64407 -81.77967 35831 ft 402 kts 331°
2026-04-30 22:56 30.69470 -81.80624 35832 ft 396 kts 326°
2026-04-30 22:57 30.81803 -81.87866 35834 ft 394 kts 326°
2026-04-30 22:58 30.91636 -81.93589 35833 ft 396 kts 325°
2026-04-30 22:59 31.06350 -82.02151 35830 ft 392 kts 325°